Tracking 19485 objects as of 21-Jan-2019
HD Live streaming from Space Station
objects crossing your sky now

COSMOS 2208

Track COSMOS 2208 now!
10-day predictions
COSMOS 2208 is classified as:


NORAD ID: 22080
Int'l Code: 1992-053A
Perigee: 786.5 km
Apogee: 806.7 km
Inclination: 74.0 °
Period: 100.7 minutes
Semi major axis: 7167 km
RCS: 2.0202 m2 (large)
Launch date: August 12, 1992
Source: Commonwealth of Independent States (former USSR) (CIS)
Launch site: PLESETSK MISSILE AND SPACE COMPLEX (PKMTR)
aabbcc
Your satellite tracking list
Your tracking list is empty




NASA's NSSDC Master Catalog

Two Line Element Set (TLE):
1 22080U 92053A   19020.87134515 -.00000029 +00000-0 -96765-6 0  9999
2 22080 074.0421 155.2980 0014072 281.4726 078.4843 14.30672245379867
Source of the keplerian elements: AFSPC